Printer-friendly version

IAU Minor Planet Center

Minor Planet Center

MPEC 2006-S79 : 2006 SO134

The following Minor Planet Electronic Circular may be linked-to from your own Web pages, but must not otherwise be redistributed electronically.


Read MPEC 2006-S78 Read MPEC 2006-S80


M.P.E.C. 2006-S79                                Issued 2006 Sept. 28, 22:04 UT

     The Minor Planet Electronic Circulars contain information on unusual
         minor planets and routine data on comets.  They are published
   on behalf of Commission 20 of the International Astronomical Union by the
          Minor Planet Center, Smithsonian Astrophysical Observatory,
                          Cambridge, MA 02138, U.S.A.

                  Supported in part by the Brinson Foundation
                  Supported in part by the TABASGO Foundation
             Prepared using the Tamkin Foundation Computer Network

                              MPC@CFA.HARVARD.EDU
          URL http://cfa-www.harvard.edu/iau/mpc.html  ISSN 1523-6714

                                  2006 SO134

Observations:
     K06SD4O  C2006 09 15.36656 00 57 03.89 +05 43 11.2                 ES079691
     K06SD4O  C2006 09 15.37646 00 57 03.74 +05 43 08.9                 ES079691
     K06SD4O  C2006 09 15.38637 00 57 03.54 +05 43 07.4                 ES079691
     K06SD4O* C2006 09 19.27350 00 55 55.41 +05 30 16.5          21.3 V ES079691
     K06SD4O  C2006 09 19.28342 00 55 55.22 +05 30 14.6          21.3 V ES079691
     K06SD4O  C2006 09 19.29334 00 55 55.02 +05 30 12.2          21.5 V ES079691
     K06SD4O  C2006 09 24.22815 00 54 16.83 +05 12 39.6          21.7 V ES079691
     K06SD4O  C2006 09 24.24494 00 54 16.46 +05 12 36.4          21.7 V ES079691
     K06SD4O  C2006 09 24.25487 00 54 16.19 +05 12 34.1          21.5 V ES079691
     K06SD4O  C2006 09 26.33080 00 53 31.74 +05 04 52.7          21.2 V ES079G96
     K06SD4O  C2006 09 26.33837 00 53 31.56 +05 04 51.2          20.9 V ES079G96
     K06SD4O  C2006 09 26.34586 00 53 31.41 +05 04 49.7          21.0 V ES079G96
     K06SD4O  C2006 09 26.35326 00 53 31.23 +05 04 48.1          21.1 V ES079G96
     K06SD4O  C2006 09 28.27739 00 52 48.96 +04 57 33.7          21.6 V ES079291
     K06SD4O  C2006 09 28.28127 00 52 48.85 +04 57 32.7          21.5 V ES079291
     K06SD4O  C2006 09 28.28552 00 52 48.76 +04 57 31.7          21.4 V ES079291

Observer details:
291 LPL/Spacewatch II.  Observer T. H. Bressi.  1.8-m f/2.7 reflector + CCD.
691 Steward Observatory, Kitt Peak.  Observers R. S. McMillan, J. V. Scotti.
    0.9-m f/3 reflector + CCD.
G96 Mt. Lemmon Survey.  Observer E. C. Beshore.  Measurers E. C. Beshore,
    E. J. Christensen, G. J. Garradd, A. R. Gibbs, A. D. Grauer, R. E. Hill,
    R. A. Kowalski, S. M. Larson, R. H. McNaught.  1.5-m reflector + CCD.

Orbital elements:
2006 SO134
Epoch 2006 Sept. 22.0 TT = JDT 2454000.5                MPC
M   0.77031              (2000.0)            P               Q
n   0.01056482     Peri.  168.68240     +0.99408042     +0.10845638
a  20.5697001      Node   185.10440     -0.10446916     +0.93793274
e   0.8405960      Incl.    4.14344     -0.02983802     +0.32942280
P  93.29           H   16.4           G   0.15           U   5
Residuals in seconds of arc
060915 691  0.1-  0.1+    060924 691  0.3+  0.4-    060926 G96  0.2+  0.1+
060915 691  0.3+  0.3-    060924 691  0.3+  0.1+    060928 291  0.1+  0.1+
060915 691  0.1-  0.1+    060924 691  0.5-  0.0     060928 291  0.2-  0.0
060919 691  0.1-  0.2+    060926 G96  0.1+  0.3-    060928 291  0.0   0.0
060919 691  0.0   0.3+    060926 G96  0.0   0.1-
060919 691  0.0   0.1-    060926 G96  0.4+  0.1+

Ephemeris:
2006 SO134               a,e,i = 20.57, 0.84, 4                  q = 3.2789
Date    TT    R. A. (2000) Decl.     Delta      r     Elong.  Phase     V
2006 09 22    00 55.04   +05 20.8    2.363    3.340   164.0     4.7    21.3
2006 10 02    00 51.41   +04 43.4    2.359    3.357   174.9     1.5    21.1
2006 10 12    00 47.59   +04 05.4    2.382    3.377   174.0     1.8    21.1
2006 10 22    00 44.12   +03 30.6    2.434    3.398   163.1     4.9    21.4
2006 11 01    00 41.52   +03 02.8    2.511    3.422   152.4     7.7    21.6
2006 11 11    00 40.18   +02 44.7    2.614    3.448   141.9    10.2    21.8
2006 11 21    00 40.33   +02 37.6    2.737    3.475   131.8    12.2    22.0

Kyle E. Smalley              (C) Copyright 2006 MPC           M.P.E.C. 2006-S79

Read MPEC 2006-S78 Read MPEC 2006-S80


Our Web policy. Index to the CBAT/MPC/ICQ pages.


Valid HTML 4.01!